Regional Weather Roundup
Issued by NWS

Home | Current Version | Previous Version | Text Only | Print | Product List | Glossary On
Versions: 1 2 3 4 5 6 7 8 9 10 11 12 13 14 15 16 17 18 19 20 21 22 23 24 25 26 27 28 29 30 31 32 33 34 35 36 37 38 39 40 41 42 43 44 45 46 47 48 49 50
000
ASUS44 KFWD 312315
RWRTX
NORTH TEXAS HOURLY WEATHER ROUNDUP
NATIONAL WEATHER SERVICE FORT WORTH TX
600 PM CDT WED AUG 31 2016

NOTE: "FAIR" INDICATES FEW OR NO CLOUDS BELOW 12,000 FEET WITH NO
SIGNIFICANT WEATHER AND/OR OBSTRUCTIONS TO VISIBILITY.

TXZ118-119-010000-
DALLAS/FORT WORTH METROPLEX

CITY           SKY/WX    TMP DP  RH WIND       PRES   REMARKS
DFW AIRPORT    PTSUNNY   93  69  45 NE3       29.90F HX  98
DALLAS LOVE    MOSUNNY   94  67  41 VRB6      29.89F HX  97
FTW MEACHAM    SUNNY     94  67  41 NE9       29.90F HX  97
DAL-EXECUTIVE  MOSUNNY   92  71  50 E8        29.90F HX  98
FTW-ALLIANCE   MOSUNNY   93  67  42 NE6       29.90F HX  96
FTW-NAS-JRB    MOSUNNY   94  65  38 NE6       29.91S HX  96
FTW-SPINKS     MOSUNNY   91  70  49 NE3       29.92F HX  97
ARLINGTON      MOSUNNY   93  69  45 N12       29.90F HX  98
GRAND PRAIRIE  SUNNY     91  66  43 N8        29.91F HX  94
ADDISON        MOSUNNY   91  66  43 SE8       29.91F HX  94
MESQUITE       MOSUNNY   90  66  45 CALM      29.90F HX  92
LANCASTER      SUNNY     94  67  42 NE3       29.91F HX  97
$$

TXZ091>094-102>105-117-120-121-131>134-010000-
NORTH CENTRAL TEXAS

CITY           SKY/WX    TMP DP  RH WIND       PRES   REMARKS
SHRMAN/DENISON SUNNY     92  70  48 E7        29.95R HX  97
GAINESVILLE      N/A     91  66  43 E5        29.95S HX  94
BOWIE          SUNNY     92  68  44 CALM      29.94F HX  96
BRIDGEPORT     MOSUNNY   91  71  50 CALM      29.94F HX  97
DECATUR        SUNNY     90  67  46 E6        29.94F HX  93
DENTON         SUNNY     93  70  46 N5        29.91F HX  99
MCKINNEY       SUNNY     90  70  51 NE5       29.91S HX  95
GREENVILLE     MOSUNNY   93  63  36 E6        29.91S HX  94
ROCKWALL       MOSUNNY   92  68  44 CALM      29.89F HX  96
TERRELL        SUNNY     92  67  43 VRB3      29.90F HX  95
WAXAHACHIE     SUNNY     91  71  52 E5        29.92S HX  98
CLEBURNE       MOSUNNY   91  70  49 NE9       29.93S HX  97
GRANBURY       CLOUDY    87  72  61 CALM      29.92F HX  93
$$

TXZ083>090-098>101-113>116-127>130-139>142-154-155-010000-
WESTERN NORTH TEXAS

CITY           SKY/WX    TMP DP  RH WIND       PRES   REMARKS
WICHITA FALLS  MOSUNNY   85  68  56 N15       29.96R
WF-KICKAPOO    PTSUNNY   88  66  47 NW5       29.96S HX  90
VERNON         MOSUNNY   86  65  49 N22G28    29.99S
ABILENE        SUNNY     90  64  42 E5        29.99F HX  91
ABILENE-DYESS  MOSUNNY   90  65  44 SE3       29.97F HX  91
CISCO          SUNNY     90  64  43 CALM      29.98S HX  91
BRECKENRIDGE   SUNNY     93  65  40 E9        29.95S HX  95
GRAHAM         SUNNY     92  70  48 CALM      29.93F HX  97
MINERAL WELLS  SUNNY     92  68  45 NE5       29.92F HX  96
STEPHENVILLE   CLOUDY    88  68  52 E3        29.97F HX  91
COMANCHE       MOSUNNY   90  67  47 E7        29.95F HX  93
BROWNWOOD      SUNNY     90  64  43 E8        29.95S HX  91
COLEMAN        CLOUDY    88  65  45 NE6       29.98F HX  90
$$

TXZ143>147-156>162-174-175-010000-
CENTRAL TEXAS

CITY           SKY/WX    TMP DP  RH WIND       PRES   REMARKS
WACO           SUNNY     92  71  50 NE10      29.89F HX  98
WACO-MCGREGOR  SUNNY     92  71  50 NE7       29.90F HX  98
HILLSBORO      MOSUNNY   90  70  51 E5        29.90F HX  94
CORSICANA      SUNNY     93  70  46 E8        29.90F HX  99
MEXIA          SUNNY     90  71  53 E5        29.89S HX  96
HEARNE         SUNNY     92  70  48 N6        29.89S HX  97
CAMERON        MOSUNNY   92  72  51 E6        29.88F HX  99
TEMPLE         SUNNY     89  71  55 NE10      29.91S HX  95
KILLEEN        MOSUNNY   90  69  49 E7        29.91S HX  94
KILLEEN-SKYLRK MOSUNNY   90  71  53 NE8       29.91F HX  96
FORT HOOD      SUNNY     91  69  49 E8        29.89S HX  95
GATESVILLE     MOSUNNY   90  70  51 E3        29.93F HX  95
HAMILTON       SUNNY     91  67  44 E8        29.95S HX  94
LAMPASAS       PTSUNNY   89  73  59 CALM      29.93F HX  96
$$

TXZ095>097-106>112-122>126-135>138-148>153-164>167-010000-
EAST TEXAS

CITY           SKY/WX    TMP DP  RH WIND       PRES   REMARKS
PARIS          MOSUNNY   90  68  48 E7        29.92F HX  93
SULPHUR SPRNGS SUNNY     93  65  40 NE7       29.93S HX  95
MOUNT PLEASANT SUNNY     91  67  44 NE7       29.92S HX  95
GILMER         SUNNY     90  71  52 NE5       29.90S THUNDER HX  95
TYLER          SUNNY     93  70  46 NE9       29.90S HX  99
LONGVIEW       MOSUNNY   91  72  53 NE7       29.88F HX  98
MARSHALL       SUNNY     90  70  52 E3        29.91S HX  95
ATHENS         SUNNY     90  68  48 NE5       29.89S HX  93
PALESTINE      SUNNY     91  72  53 NE7       29.90S HX  97
JACKSONVILLE   SUNNY     90  71  53 NE6       29.92S HX  95
HENDERSON      MOSUNNY   90  71  53 E5        29.90S HX  95
CENTER         CLEAR     92  73  54 CALM      29.89S HX 101
NACOGDOCHES    SUNNY    N/A N/A N/A CALM      29.86F
LUFKIN         MOSUNNY   89  73  59 N8        29.87S HX  97
$$

SUPPLEMENTAL OBSERVATIONS (CENTRAL)

CITY           SKY/WX    TMP DP  RH WIND       PRES   REMARKS
DENISON DAM      N/A     90  68  48 NE3         N/A  HX  93
CADDO GRASSLND   N/A     93  72  49 E2          N/A  HX 100
PAT MAYSE LAKE   N/A     90  68  48 N5          N/A  HX  93
GREENVILLE       N/A     93  68  43 E7          N/A  HX  97
CEDAR HILL       N/A     91  70  49 E1G9        N/A  HX  97
LAKE LIMESTONE   N/A     91  68  46 NE6         N/A  HX  95
MCGREGOR         N/A     91  70  49 E8          N/A  HX  97
TEMPLE           N/A     91  68  46 NE9         N/A  HX  95
$$

SUPPLEMENTAL OBSERVATIONS (WEST)

CITY           SKY/WX    TMP DP  RH WIND       PRES   REMARKS
MILLERS CREEK    N/A     88  66  48 NE8G17      N/A  HX  90
POSSUM KINGDOM   N/A     91  68  46 E5          N/A  HX  95
LBJ GRASSLAND    N/A     91  70  49 E5          N/A  HX  97
GRANBURY         N/A     86  72  62 W3          N/A  HX  92
COMANCHE         N/A     90  66  45 E8          N/A  HX  92
HAMBY            N/A     91  63  38 E6          N/A  HX  92
IVIE RESERVOIR   N/A     88  66  48 N5          N/A  HX  90
COLORADO BEND    N/A     90  66  45 E5G13       N/A  HX  92
$$

SUPPLEMENTAL OBSERVATIONS (EAST)

CITY           SKY/WX    TMP DP  RH WIND       PRES   REMARKS
CLARKSVILLE      N/A     91  68  46 E3G12       N/A  HX  95
TEXARKANA        N/A     93  73  52 NE1         N/A  HX 102
LINDEN           N/A     91  68  46 E2          N/A  HX  95
CADDO LAKE       N/A     93  73  52 NE2         N/A  HX 102
GILMER           N/A     91  70  49 NE3         N/A  HX  97
HENDERSON        N/A     90  72  55 E6          N/A  HX  96
LUFKIN           N/A     82  70  65 MISG        N/A
N SABINE NF      N/A     88  75  66 MISG        N/A  HX  97
S SABINE NF      N/A     90  73  58 N2          N/A  HX  98
$$

SUPPLEMENTAL OBSERVATIONS ARE A COLLECTION OF AUTOMATED INSTRUMENTS
THAT ARE MAINTAINED BY A VARIETY OF FEDERAL AND STATE AGENCIES.
CERTAIN ELEMENTS...SUCH AS HUMIDITY VALUES AND SUSTAINED WIND
SPEEDS...MAY BE APPROXIMATED.





USA.gov is the U.S. government's official web portal to all federal, state and local government web resources and services.